When you browse on this site, cookies collect data to enhance your experience and personalize the content and advertising you see.
Visit our Privacy Policy to learn more. By continuing to use the site, you agree to this use of cookies and data.
  • En España
  • Lista de países
  • Para 7 días
  • Temperatura del agua
  • Mapa Satelital
  • El tiempo en el mapa
  • Informadores
  • user-avatar
    Iniciar sesión

    Tiempo cada hora Mendoza

    Hoy, 17 Enero, Jueves

    Tiempo Temperatura Precipitaciones Viento Presión Humedad
    00:00 +21°C° 0 mm 8 mps 701 mmHg 53%
    01:00 +18°C° 0 mm 8 mps 701 mmHg 58%
    02:00 +18°C° 0 mm 8 mps 701 mmHg 60%
    03:00 +17°C° 0 mm 7 mps 701 mmHg 63%
    04:00 +16°C° 0 mm 7 mps 701 mmHg 66%
    05:00 +16°C° 0 mm 7 mps 702 mmHg 62%
    06:00 +16°C° 0 mm 7 mps 702 mmHg 58%
    07:00 +17°C° 0 mm 7 mps 703 mmHg 54%
    08:00 +17°C° 0.1 mm 7 mps 703 mmHg 54%
    09:00 +17°C° 0.1 mm 8 mps 703 mmHg 54%
    10:00 +17°C° 0.1 mm 8 mps 704 mmHg 54%
    11:00 +16°C° 0.6 mm 8 mps 704 mmHg 58%
    12:00 +16°C° 0.6 mm 7 mps 703 mmHg 61%
    13:00 +15°C° 0.6 mm 7 mps 703 mmHg 65%
    14:00 +16°C° 0.1 mm 6 mps 703 mmHg 60%
    15:00 +19°C° 0.1 mm 6 mps 703 mmHg 54%
    16:00 +20°C° 0.1 mm 5 mps 703 mmHg 49%
    17:00 +19°C° 0 mm 4 mps 703 mmHg 51%
    18:00 +19°C° 0 mm 3 mps 704 mmHg 53%
    19:00 +18°C° 0 mm 2 mps 704 mmHg 55%
    20:00 +17°C° 0 mm 2 mps 704 mmHg 60%
    21:00 +17°C° 0 mm 2 mps 704 mmHg 65%
    22:00 +16°C° 0 mm 2 mps 704 mmHg 69%
    23:00 +15°C° 0 mm 2 mps 704 mmHg 72%

    Mañana, 18 Enero, Viernes

    Tiempo Temperatura Precipitaciones Viento Presión Humedad
    00:00 +15°C° 0 mm 2 mps 703 mmHg 75%
    01:00 +14°C° 0 mm 2 mps 703 mmHg 78%
    02:00 +14°C° 0 mm 1 mps 703 mmHg 78%
    03:00 +14°C° 0 mm 1 mps 702 mmHg 79%
    04:00 +14°C° 0 mm 1 mps 702 mmHg 79%
    05:00 +15°C° 0 mm 1 mps 702 mmHg 73%
    06:00 +16°C° 0 mm 1 mps 702 mmHg 66%
    07:00 +18°C° 0 mm 2 mps 703 mmHg 59%
    08:00 +19°C° 0 mm 2 mps 703 mmHg 51%
    09:00 +21°C° 0 mm 3 mps 703 mmHg 42%
    10:00 +24°C° 0 mm 3 mps 703 mmHg 34%
    11:00 +25°C° 0 mm 4 mps 702 mmHg 31%
    12:00 +26°C° 0 mm 4 mps 702 mmHg 29%
    13:00 +27°C° 0 mm 4 mps 701 mmHg 26%
    14:00 +27°C° 0 mm 4 mps 701 mmHg 26%
    15:00 +27°C° 0 mm 4 mps 700 mmHg 26%
    16:00 +27°C° 0 mm 4 mps 700 mmHg 25%
    17:00 +26°C° 0 mm 3 mps 700 mmHg 27%
    18:00 +25°C° 0 mm 3 mps 700 mmHg 29%
    19:00 +25°C° 0 mm 2 mps 700 mmHg 30%
    20:00 +24°C° 0 mm 2 mps 700 mmHg 32%
    21:00 +24°C° 0 mm 2 mps 701 mmHg 34%
    22:00 +23°C° 0 mm 2 mps 701 mmHg 35%
    23:00 +23°C° 0 mm 2 mps 701 mmHg 38%

    Pasado mañana, 19 Enero, Sábado

    Tiempo Temperatura Precipitaciones Viento Presión Humedad
    00:00 +22°C° 0 mm 1 mps 700 mmHg 40%
    01:00 +21°C° 0 mm 1 mps 700 mmHg 43%
    02:00 +21°C° 0 mm 1 mps 700 mmHg 46%
    03:00 +20°C° 0 mm 1 mps 699 mmHg 50%
    04:00 +20°C° 0 mm 1 mps 699 mmHg 54%
    05:00 +21°C° 0 mm 1 mps 700 mmHg 51%
    06:00 +22°C° 0 mm 1 mps 700 mmHg 48%
    07:00 +23°C° 0 mm 1 mps 700 mmHg 45%
    08:00 +25°C° 0 mm 2 mps 700 mmHg 40%
    09:00 +26°C° 0 mm 3 mps 700 mmHg 36%
    10:00 +28°C° 0 mm 4 mps 700 mmHg 31%
    11:00 +29°C° 0 mm 4 mps 700 mmHg 30%
    12:00 +30°C° 0 mm 5 mps 699 mmHg 28%
    13:00 +32°C° 0 mm 5 mps 699 mmHg 27%
    14:00 +32°C° 0 mm 4 mps 698 mmHg 26%
    15:00 +32°C° 0 mm 4 mps 698 mmHg 26%
    16:00 +33°C° 0 mm 4 mps 698 mmHg 26%
    17:00 +31°C° 0 mm 3 mps 698 mmHg 28%
    18:00 +30°C° 0 mm 3 mps 698 mmHg 29%
    19:00 +29°C° 0 mm 2 mps 698 mmHg 31%
    20:00 +28°C° 0 mm 2 mps 698 mmHg 34%
    21:00 +27°C° 0 mm 3 mps 698 mmHg 37%
    22:00 +27°C° 0 mm 3 mps 699 mmHg 40%
    23:00 +26°C° 0 mm 2 mps 698 mmHg 43%

    20 Enero, Domingo

    Tiempo Temperatura Precipitaciones Viento Presión Humedad
    00:00 +25°C° 0 mm 2 mps 697 mmHg 46%
    01:00 +25°C° 0 mm 2 mps 697 mmHg 50%
    02:00 +24°C° 0 mm 2 mps 697 mmHg 52%
    03:00 +24°C° 0 mm 2 mps 696 mmHg 54%
    04:00 +23°C° 0 mm 1 mps 696 mmHg 56%
    05:00 +24°C° 0 mm 2 mps 696 mmHg 53%
    06:00 +25°C° 0 mm 3 mps 697 mmHg 51%
    07:00 +26°C° 0 mm 3 mps 697 mmHg 49%
    08:00 +27°C° 0 mm 4 mps 697 mmHg 46%
    09:00 +28°C° 0 mm 4 mps 697 mmHg 43%
    10:00 +29°C° 0 mm 4 mps 697 mmHg 40%
    11:00 +30°C° 0 mm 4 mps 696 mmHg 38%
    12:00 +32°C° 0 mm 4 mps 696 mmHg 36%
    13:00 +33°C° 0 mm 3 mps 695 mmHg 34%
    14:00 +34°C° 0 mm 3 mps 695 mmHg 32%
    15:00 +34°C° 0 mm 3 mps 695 mmHg 31%
    16:00 +34°C° 0 mm 3 mps 695 mmHg 30%
    17:00 +33°C° 0 mm 3 mps 695 mmHg 33%
    18:00 +31°C° 0 mm 3 mps 696 mmHg 35%
    19:00 +30°C° 0 mm 2 mps 696 mmHg 38%
    20:00 +30°C° 0 mm 2 mps 696 mmHg 41%
    21:00 +29°C° 0 mm 1 mps 697 mmHg 45%
    22:00 +28°C° 0 mm 1 mps 697 mmHg 48%
    23:00 +28°C° 0 mm 1 mps 697 mmHg 50%

    21 Enero, Lunes

    Tiempo Temperatura Precipitaciones Viento Presión Humedad
    00:00 +27°C° 0 mm 1 mps 697 mmHg 52%
    01:00 +27°C° 0 mm 2 mps 696 mmHg 54%
    02:00 +26°C° 0 mm 1 mps 696 mmHg 58%
    03:00 +25°C° 0 mm 1 mps 696 mmHg 61%
    04:00 +23°C° 0 mm 0 mps 696 mmHg 64%
    05:00 +26°C° 0 mm 1 mps 697 mmHg 61%
    06:00 +26°C° 0 mm 1 mps 697 mmHg 58%
    07:00 +27°C° 0 mm 2 mps 698 mmHg 55%
    08:00 +29°C° 0 mm 2 mps 698 mmHg 50%
    09:00 +30°C° 0 mm 2 mps 698 mmHg 45%
    10:00 +32°C° 0 mm 2 mps 698 mmHg 40%
    11:00 +34°C° 0 mm 3 mps 698 mmHg 36%
    12:00 +35°C° 0 mm 4 mps 697 mmHg 32%
    13:00 +36°C° 0 mm 5 mps 697 mmHg 29%
    14:00 +36°C° 0 mm 5 mps 696 mmHg 28%
    15:00 +37°C° 0 mm 5 mps 696 mmHg 26%
    16:00 +37°C° 0 mm 5 mps 695 mmHg 25%
    17:00 +36°C° 0 mm 4 mps 695 mmHg 26%
    18:00 +35°C° 0 mm 4 mps 696 mmHg 28%
    19:00 +34°C° 0 mm 3 mps 696 mmHg 29%
    20:00 +33°C° 0 mm 3 mps 696 mmHg 31%
    21:00 +31°C° 0 mm 3 mps 696 mmHg 34%
    22:00 +31°C° 0 mm 3 mps 696 mmHg 37%
    23:00 +30°C° 0 mm 2 mps 696 mmHg 41%

    22 Enero, Martes

    Tiempo Temperatura Precipitaciones Viento Presión Humedad
    00:00 +29°C° 0 mm 2 mps 695 mmHg 44%
    01:00 +28°C° 0 mm 1 mps 695 mmHg 48%
    02:00 +28°C° 0 mm 1 mps 695 mmHg 47%
    03:00 +27°C° 0 mm 1 mps 695 mmHg 46%
    04:00 +27°C° 0 mm 1 mps 695 mmHg 46%
    05:00 +28°C° 0 mm 1 mps 695 mmHg 44%
    06:00 +29°C° 0 mm 1 mps 695 mmHg 42%
    07:00 +30°C° 0 mm 2 mps 696 mmHg 40%
    08:00 +31°C° 0 mm 2 mps 696 mmHg 38%
    09:00 +34°C° 0 mm 2 mps 696 mmHg 35%
    10:00 +35°C° 0 mm 2 mps 696 mmHg 32%
    11:00 +36°C° 0 mm 3 mps 696 mmHg 31%
    12:00 +37°C° 0 mm 3 mps 695 mmHg 29%
    13:00 +38°C° 0 mm 3 mps 695 mmHg 27%
    14:00 +38°C° 0 mm 4 mps 695 mmHg 26%
    15:00 +40°C° 0 mm 4 mps 695 mmHg 26%
    16:00 +40°C° 0 mm 4 mps 694 mmHg 25%
    17:00 +38°C° 0 mm 3 mps 695 mmHg 27%
    18:00 +37°C° 0 mm 3 mps 695 mmHg 29%
    19:00 +36°C° 0 mm 2 mps 696 mmHg 31%
    20:00 +34°C° 0.4 mm 4 mps 696 mmHg 38%
    21:00 +32°C° 0.4 mm 6 mps 696 mmHg 46%
    22:00 +31°C° 0.4 mm 8 mps 697 mmHg 53%
    23:00 +29°C° 0.1 mm 7 mps 697 mmHg 57%
    Mostrar más